Powrót do katalogu

STARLINK-34024

AktywnyŁącznośćVLEO
NORAD 64031·PAYLOAD·🇺🇸 United States

Wystrzelony May 16, 2025 z Vandenberg Space Force Base

Loading…

Następne Przeloty (najbliższe 24 godziny)

TLE

ŚwieżeSource: CelesTrak SupGP

Epoka: Sep 14, 2026, 21:10 UTC

1 64031C 25102K   26257.88243056 -.00034138  00000+0 -11577-2 0  2572
2 64031  70.0011 355.9400 0003342 273.4673 272.8296 15.30422661    12

Śledź STARLINK-34024 w czasie rzeczywistym z AllMySat

Download on the App Store